Wind_Speed
36 40 42 45 49 56 55 50 46 42 49 39 43 42 43 45 49 51 49 51 52 54 55 55 54 51 51 49 48 50 50 49 50 52 43 46 48 48 49 48 47 50 49
34 33 34 39 30 44 51 45 44 48 34 33 41 38 40 41 42 45 47 50 51 52 57 57 57 56 56 54 53 55 56 53 52 56 55 49 54 53 50 56 56 58 59
34 37 37 37 41 43 46 42 42 52 51 43 30 36 56 37 32 37 38 43 48 46 49 55 57 57 57 57 57 55 56 56 53 55 54 55 53 56 52 55 55 53 51
26 29 30 30 33 35 37 40 41 43 42 43 42 37 38 44 35 42 41 43 43 43 47 50 51 53 52 48 51 50 51 53 50 50 47 47 44 51 52 52 50 51 50
33 28 22 27 25 32 32 32 35 37 39 40 41 46 47 42 43 43 53 47 37 36 38 41 46 46 48 46 51 49 50 50 46 51 54 54 51 53 51 49 51 53 53
17 18 22 33 42 30 31 34 32 31 35 37 37 39 41 45 51 44 52 47 38 39 45 38 42 41 39 45 45 46 44 43 42 44 51 45 49 46 35 34 37 41 45
20 17 18 21 22 25 33 30 44 33 35 31 34 35 36 38 43 47 40 39 46 40 44 43 41 41 44 45 39 39 43 49 45 47 47 49 47 43 43 33 34 38 38
23 21 19 19 22 22 24 28 29 27 46 39 31 31 35 37 37 40 50 45 40 50 49 44 46 42 40 38 40 42 44 35 40 46 45 45 44 34 40 35 33 37 37
27 26 27 27 26 26 27 26 24 25 28 32 42 42 38 38 36 37 40 45 49 49 40 44 48 35 35 42 45 34 46 38 39 42 43 50 53 49 39 42 43 42 41
33 33 31 30 31 31 29 32 30 29 29 27 29 35 40 41 42 42 39 39 40 40 45 43 39 40 44 49 46 45 48 45 38 45 45 43 45 44 48 40 41 39 42
34 35 36 35 36 36 33 30 32 35 34 32 31 29 32 41 44 44 42 38 40 39 38 39 43 45 46 54 46 45 41 43 47 48 53 49 50 53 45 44 43 43 45
40 41 40 39 39 39 38 33 32 34 34 34 36 33 31 32 35 40 40 41 34 35 34 35 37 38 37 40 45 41 39 43 45 46 43 44 44 42 41 42 40 42 40
43 45 46 46 44 44 44 38 34 33 34 32 34 37 34 32 32 35 38 37 36 36 36 35 33 34 35 37 39 43 45 44 40 40 40 42 41 42 38 38 38 34 30
49 49 49 50 50 48 49 47 40 35 35 33 32 35 34 34 33 33 35 34 36 37 35 33 33 34 35 36 38 38 39 42 43 43 43 44 43 38 35 32 29 25 26
52 53 53 53 53 53 50 49 46 40 37 35 32 30 32 33 30 31 32 35 34 33 34 35 35 35 37 34 32 33 33 37 38 39 37 34 31 28 25 23 20 18 17
53 55 55 55 54 55 54 51 44 39 37 36 33 30 31 29 28 24 23 24 30 29 31 32 35 33 30 29 29 28 26 25 24 23 23 21 19 19 20 19 18 17 18
50 51 53 54 55 57 55 54 46 38 35 35 33 31 30 27 29 27 26 24 23 24 22 25 21 20 18 16 18 20 20 21 20 20 19 19 19 21 23 24 20 21 21
34 36 39 43 46 50 54 54 47 38 35 33 32 30 25 25 27 22 20 20 21 18 21 24 24 26 29 28 26 23 21 19 17 17 18 19 20 20 19 18 19 21 22
23 30 36 36 36 43 41 44 44 40 35 34 30 25 23 23 23 21 25 28 31 29 24 29 29 26 22 19 18 18 16 16 17 17 16 17 19 18 15 17 18 20 21
11 16 16 21 26 27 29 29 34 35 35 29 22 27 33 29 32 31 31 30 28 27 28 27 25 26 25 23 20 17 15 14 12 10 12 14 14 13 13 14 16 18 18
3 6 8 6 11 16 20 23 24 25 26 24 28 32 38 35 31 32 31 29 30 28 25 22 20 21 20 19 17 15 13 10 9 9 11 11 12 13 15 17 19 21 22
10 7 7 9 12 15 19 21 22 22 25 31 36 37 36 39 36 33 28 26 25 23 23 23 22 21 18 15 12 10 8 8 9 12 14 15 17 18 19 21 23 24 25
18 16 15 14 12 13 13 16 19 23 32 35 36 38 38 36 29 28 30 28 27 26 23 22 20 17 14 12 9 8 8 10 12 14 16 18 20 22 23 24 25 26 26
14 13 8 9 13 15 18 20 22 29 30 28 29 32 30 30 32 31 29 27 25 22 19 16 14 11 9 6 6 8 11 15 18 20 21 22 23 25 26 27 27 27 27
15 15 13 14 16 16 16 17 21 21 25 28 29 30 32 31 30 28 26 23 21 18 15 12 10 9 9 9 11 13 15 16 17 18 19 20 22 25 27 28 29 29 27
14 14 15 18 21 19 21 24 25 28 29 29 29 28 27 26 25 23 20 18 15 13 11 10 10 10 11 11 11 11 12 14 15 17 17 18 19 20 21 24 25 24 24
Wind_Direction
233 236 235 236 229 231 235 237 240 247 243 242 243 242 240 243 240 243 242 244 245 243 240 243 245 250 254 254 257 259 260 261 265 268 269 269 272 272 276 278 284 275 280
221 228 237 230 231 230 237 240 235 236 249 251 239 242 243 243 244 243 244 242 243 242 243 242 243 246 249 252 254 256 259 261 265 268 267 269 270 274 279 281 277 277 288
223 224 229 230 234 235 247 240 245 247 247 247 252 239 238 240 247 248 246 248 245 245 244 243 244 246 248 249 253 255 258 258 258 270 272 269 271 275 278 274 278 279 282
240 236 235 235 232 229 232 237 242 248 246 246 239 241 261 256 245 249 241 242 244 244 245 244 244 244 249 251 253 255 259 261 259 263 266 271 266 272 278 271 274 280 277
246 241 251 248 246 240 237 233 234 241 241 242 243 244 243 247 254 245 255 242 244 253 248 247 247 248 252 254 252 257 252 252 260 260 258 262 270 276 275 284 282 278 273
260 254 252 258 260 247 251 240 237 236 238 240 245 247 247 244 248 256 259 259 258 248 258 251 261 259 255 250 245 246 249 255 260 259 257 266 267 273 274 271 272 268 272
270 265 258 261 263 257 257 264 249 246 246 242 245 244 246 249 248 242 252 262 252 258 254 254 245 252 252 247 256 251 247 254 250 249 254 259 265 270 271 263 267 271 268
269 265 266 261 266 266 258 262 261 263 246 244 247 251 248 247 248 247 243 249 251 249 249 254 253 251 253 245 250 249 256 251 253 255 258 255 260 259 267 258 263 260 262
281 273 263 268 263 264 268 265 266 268 263 262 251 247 255 258 253 249 249 246 249 249 257 251 254 260 254 254 263 267 251 259 256 257 270 269 269 262 264 257 251 251 257
287 284 280 271 270 267 265 265 263 262 263 264 257 252 256 255 252 255 251 251 247 254 251 258 250 255 258 259 259 266 259 265 252 267 266 267 271 272 262 249 252 254 256
281 281 280 278 274 273 268 266 262 261 262 263 266 264 256 249 255 256 259 259 258 256 254 257 256 259 255 260 259 254 260 262 264 267 269 264 264 266 255 255 254 254 258
277 277 277 278 276 275 272 267 263 261 262 261 265 269 268 262 251 252 249 253 246 250 252 249 249 254 258 264 264 259 255 259 266 269 261 266 268 268 262 259 256 253 252
273 272 274 273 270 269 270 267 262 261 262 261 263 266 271 266 261 256 251 248 244 243 241 243 246 253 257 259 259 260 262 257 254 257 259 262 261 263 253 248 247 245 242
269 267 265 266 266 267 266 264 262 258 259 259 259 264 266 265 262 258 249 245 245 246 245 244 246 251 253 254 257 257 254 257 258 260 257 254 252 243 238 239 237 231 222
271 268 265 263 262 261 261 263 261 259 258 258 258 257 261 262 262 261 254 246 246 255 260 258 250 248 249 251 253 253 254 250 250 249 245 238 233 229 226 219 207 204 197
274 269 265 260 257 256 256 258 260 258 255 253 251 253 255 254 260 251 250 244 248 254 260 257 259 258 245 241 244 245 240 233 224 214 206 194 183 175 170 170 172 195 217
276 270 265 258 252 250 250 252 253 249 245 250 246 250 256 251 252 249 232 225 234 226 242 249 239 223 212 198 181 162 156 149 143 137 134 140 145 162 174 188 198 219 227
279 270 263 256 250 245 242 244 246 244 245 246 237 243 248 233 244 224 224 223 219 214 178 164 156 155 146 141 136 134 145 160 166 177 190 198 200 202 207 211 217 224 230
274 271 266 260 249 242 240 239 242 242 236 236 225 225 234 222 215 196 175 171 168 162 161 157 146 143 149 152 148 152 164 183 200 210 214 214 213 209 205 211 218 226 228
315 316 277 249 239 230 221 226 228 220 222 215 214 233 206 181 166 160 155 149 145 141 137 141 149 156 161 171 181 185 181 180 183 192 204 213 216 217 220 225 229 234 239
326 54 65 115 167 183 202 206 212 206 196 202 198 194 169 160 148 141 141 154 164 166 176 189 186 178 173 173 173 175 178 181 194 210 225 238 245 247 247 246 245 245 245
47 69 115 137 155 168 180 184 191 199 198 182 171 162 158 152 155 163 171 178 189 185 175 168 167 166 166 168 171 178 192 210 227 238 245 250 253 252 250 248 248 248 248
22 44 71 91 102 134 162 169 174 172 169 166 158 155 154 162 171 171 170 168 166 166 164 164 164 164 168 176 189 207 226 241 251 258 263 265 267 266 265 263 260 258 257
36 46 66 98 112 121 126 130 144 153 148 149 156 156 162 165 160 163 162 160 162 163 164 168 169 175 187 202 231 250 258 263 266 268 270 273 275 276 273 269 265 262 259
47 63 82 101 107 108 112 121 133 135 145 149 156 157 156 156 158 159 159 161 164 168 173 183 194 207 222 237 247 252 256 263 269 273 276 279 280 279 277 273 269 265 260
48 60 73 85 96 114 133 140 145 148 150 150 149 150 152 154 157 158 161 168 175 182 191 204 215 224 232 239 248 257 266 271 277 282 285 288 291 290 280 270 263 259 258
Height
2988 2990 2995 2997 3000 3006 3011 3014 3018 3022 3021 3022 3028 3033 3037 3041 3045 3049 3055 3059 3062 3067 3071 3075 3078 3082 3085 3090 3092 3092 3095 3099 3099 3102 3108 3112 3110 3110 3112 3112 3115 3117 3115
2982 2984 2987 2991 2992 2998 3002 3006 3009 3009 3005 3003 3009 3017 3024 3029 3033 3038 3042 3046 3050 3053 3058 3062 3066 3071 3073 3076 3081 3083 3082 3088 3090 3090 3095 3096 3099 3100 3103 3102 3098 3101 3102
2975 2977 2979 2982 2986 2990 2989 2993 2994 3000 2998 2999 2981 2996 3005 3013 3021 3027 3031 3033 3037 3041 3046 3050 3054 3058 3061 3064 3067 3071 3072 3076 3079 3079 3079 3082 3087 3088 3087 3089 3091 3092 3090
2971 2971 2973 2975 2978 2981 2983 2986 2989 2991 2992 2994 2995 2998 2999 2992 3004 3016 3018 3016 3017 3022 3029 3035 3040 3044 3048 3053 3055 3058 3062 3062 3066 3069 3067 3069 3072 3073 3074 3077 3077 3080 3080
2966 2966 2968 2970 2972 2974 2975 2978 2981 2984 2986 2989 2992 2995 2997 2999 3001 3004 3005 3006 3008 3014 3012 3020 3023 3028 3034 3039 3042 3045 3050 3051 3054 3055 3055 3057 3058 3061 3061 3064 3063 3065 3070
2960 2958 2959 2963 2967 2966 2968 2970 2972 2974 2977 2980 2982 2985 2988 2990 2993 2996 2996 3000 2975 2993 3001 3006 3013 3017 3022 3027 3028 3033 3036 3037 3038 3041 3044 3046 3046 3053 3052 3051 3052 3049 3052
2954 2951 2954 2956 2958 2956 2959 2960 2963 2965 2968 2969 2972 2975 2977 2980 2984 2985 2985 2985 2992 2991 2991 3000 3006 3004 3009 3002 3013 3017 3021 3023 3025 3026 3029 3033 3036 3039 3042 3040 3040 3040 3042
2946 2949 2948 2949 2951 2950 2949 2952 2953 2953 2957 2959 2960 2963 2967 2971 2973 2974 2979 2979 2978 2981 2985 2983 2987 2996 2994 2998 3004 3002 3007 3013 3017 3018 3017 3020 3024 3025 3030 3030 3029 3028 3030
2939 2941 2941 2940 2940 2941 2943 2944 2943 2946 2946 2947 2951 2952 2955 2961 2961 2964 2968 2969 2971 2971 2973 2977 2987 2981 2984 2989 2988 2988 2996 2999 3003 3004 3003 3010 3014 3016 3016 3016 3014 3017 3017
2930 2928 2929 2930 2930 2930 2932 2934 2935 2938 2937 2938 2940 2942 2946 2951 2951 2954 2957 2958 2961 2962 2964 2969 2971 2973 2977 2981 2981 2983 2986 2989 2989 2990 2996 2999 3000 3001 3003 3001 3002 3005 3005
2917 2916 2917 2917 2916 2920 2922 2925 2924 2925 2928 2930 2933 2935 2936 2938 2940 2942 2944 2946 2949 2950 2953 2955 2957 2964 2966 2967 2970 2972 2975 2978 2979 2981 2985 2985 2987 2989 2989 2988 2992 2992 2990
2907 2906 2905 2904 2906 2907 2909 2912 2914 2914 2916 2918 2922 2923 2924 2926 2926 2931 2932 2937 2939 2941 2944 2946 2947 2950 2953 2954 2956 2959 2961 2964 2966 2969 2970 2975 2976 2977 2978 2978 2980 2979 2980
2894 2894 2893 2891 2893 2895 2896 2899 2902 2902 2904 2907 2909 2911 2914 2913 2915 2918 2920 2924 2927 2930 2933 2933 2933 2936 2939 2942 2944 2945 2948 2951 2953 2957 2957 2960 2964 2966 2967 2967 2968 2970 2973
2878 2877 2878 2878 2879 2881 2881 2884 2889 2891 2892 2895 2897 2899 2901 2903 2905 2907 2911 2913 2915 2918 2920 2921 2923 2926 2928 2930 2933 2935 2937 2940 2943 2945 2945 2948 2950 2952 2955 2958 2963 2963 2967
2860 2859 2861 2862 2863 2864 2866 2869 2875 2878 2879 2882 2886 2888 2890 2893 2897 2897 2898 2900 2904 2908 2910 2913 2914 2916 2918 2919 2922 2925 2927 2931 2932 2934 2935 2937 2939 2943 2948 2953 2957 2961 2965
2839 2839 2840 2841 2844 2845 2849 2851 2859 2865 2866 2870 2874 2878 2881 2884 2887 2887 2889 2890 2893 2896 2902 2904 2907 2908 2910 2909 2913 2917 2919 2922 2925 2927 2929 2932 2935 2942 2946 2950 2955 2960 2964
2818 2816 2816 2817 2822 2825 2831 2835 2843 2849 2854 2859 2865 2868 2871 2874 2877 2879 2881 2885 2887 2888 2892 2897 2898 2901 2903 2904 2908 2913 2916 2920 2925 2928 2932 2936 2937 2942 2945 2948 2950 2956 2962
2799 2796 2794 2795 2799 2804 2812 2820 2828 2836 2843 2849 2855 2859 2862 2866 2870 2872 2875 2878 2881 2885 2888 2891 2898 2899 2902 2905 2909 2913 2919 2923 2926 2930 2934 2937 2938 2938 2939 2942 2946 2952 2958
2789 2784 2780 2780 2783 2788 2798 2807 2816 2823 2832 2838 2844 2851 2855 2860 2863 2867 2871 2877 2881 2886 2888 2893 2899 2902 2905 2909 2914 2918 2920 2922 2925 2929 2932 2937 2938 2936 2935 2939 2944 2949 2953
2782 2775 2769 2769 2774 2779 2789 2798 2804 2812 2821 2829 2836 2845 2849 2855 2860 2865 2869 2878 2883 2888 2891 2896 2900 2903 2906 2910 2913 2915 2917 2921 2924 2927 2932 2936 2936 2934 2935 2937 2942 2945 2948
2782 2777 2772 2769 2773 2779 2787 2794 2800 2808 2817 2823 2831 2839 2846 2853 2858 2865 2870 2880 2884 2888 2893 2895 2898 2902 2905 2909 2911 2914 2916 2917 2920 2926 2930 2932 2931 2931 2932 2935 2938 2940 2941
2783 2780 2779 2779 2781 2785 2789 2795 2801 2807 2813 2821 2830 2837 2845 2851 2859 2866 2873 2879 2882 2887 2891 2894 2897 2901 2904 2908 2910 2912 2913 2915 2920 2924 2926 2926 2925 2926 2927 2929 2930 2932 2934
2789 2786 2784 2784 2785 2786 2791 2795 2800 2805 2813 2823 2832 2839 2845 2852 2859 2866 2872 2877 2882 2887 2890 2894 2897 2900 2903 2906 2907 2909 2911 2915 2918 2920 2921 2921 2921 2922 2922 2923 2924 2925 2926
2799 2796 2793 2793 2794 2795 2797 2800 2805 2812 2820 2827 2835 2842 2848 2854 2861 2867 2872 2877 2882 2887 2891 2894 2897 2899 2901 2901 2903 2906 2909 2911 2913 2915 2915 2915 2915 2915 2916 2916 2917 2918 2918
2806 2804 2802 2801 2802 2803 2805 2809 2813 2819 2826 2834 2840 2845 2851 2857 2863 2868 2873 2878 2882 2886 2889 2892 2894 2896 2897 2899 2902 2904 2906 2907 2908 2908 2907 2908 2908 2908 2908 2908 2908 2909 2910
2814 2813 2811 2809 2810 2814 2818 2821 2825 2830 2835 2839 2845 2850 2855 2860 2865 2870 2875 2879 2882 2885 2887 2890 2892 2893 2896 2897 2899 2899 2900 2900 2900 2901 2901 2901 2900 2900 2900 2900 2901 2902 2903